IRIDIUM 100

Last updated on Sun Jun 21 2026 00:03:14 GMT+0000 (Coordinated Universal Time)

1 42956U 17061B 26171.30433654 .00000086 00000+0 23737-4 0 9995 2 42956 86.3966 23.8833 0002146 87.6495 272.4946 14.34217708455224
UTC large
Height (km)
Speed (km/s)
/
Latitude / Longitude
Inclination (degrees)
Orbital Period (minutes)
Azimuth
Elevation
Range (km)
Doppler Factor

Next 0 passes for location: London (51.5072 / 0.1276)

No passes found over London.
IRIDIUM 100